Preview of NWS' New Version of Forecast
This preview is not operational and should not be used for support decisions.

Regional Weather Roundup (RWR)

Issued by National Weather Service (NWS)

                            
000
ASUS44 KJAN 190610
RWRMS 

MISSISSIPPI HOURLY WEATHER ROUNDUP
NATIONAL WEATHER SERVICE JACKSON MS
100 AM CDT THU SEP 19 2019

NOTE: "FAIR: INDICATES FEW OR NO CLOUDS BELOW 12,000 FEET WITH NO
SIGNIFICANT WEATHER AND/OR OBSTRUCTIONS TO VISIBILITY.

MSZ001>002-007>008-010>013-018>021-025>028-034>036-190700-
NORTHWEST MISSISSIPPI
  
CITY           SKY/WX    TMP DP  RH WIND       PRES   REMARKS
BATESVILLE       N/A     72  70  94 CALM      29.97S                  
CLARKSDALE       N/A     73  70  88 CALM      29.97S                  
CLEVELAND      FAIR      76  70  80 W3        29.96S                  
GREENWOOD      FAIR      77  70  79 CALM      29.97R                  
6HR MIN TEMP:  76; 6HR MAX TEMP:  84;                                

GREENVILLE     FAIR      78  71  79 W6        29.96S                  
6HR MIN TEMP:  76; 6HR MAX TEMP:  91;                                

OLIVE BRANCH   PTCLDY    79  70  73 CALM      29.98F                  
OXFORD         FAIR      72  68  88 CALM      29.99F                  
TUNICA           N/A     73  68  83 CALM      29.98S HAZE             
WINONA         FAIR      72  71  96 CALM      29.97S                  
$$

MSZ003>006-009-014>017-022>024-029>033-037>039-190700-
NORTHEAST MISSISSIPPI
  
CITY           SKY/WX    TMP DP  RH WIND       PRES   REMARKS
ABERDEEN       FAIR      70  52  52 CALM      29.98S HAZE             
COLUMBUS AFB   FAIR      73  69  89 CALM      29.96S                  
6HR MIN TEMP:  73; 6HR MAX TEMP:  85;                                

CORINTH        FOG       70  70 100 CALM      29.99S VSB 1/4          
GOLDN TRIANGLE FAIR      73  70  90 CALM      29.97S                  
STARKVILLE       N/A     70  68  94 CALM      29.98F                  
TUPELO         FAIR      76  69  79 CALM      29.98S                  
6HR MIN TEMP:  75; 6HR MAX TEMP:  90;                                

$$

MSZ040-058-190700-
CENTRAL MISSISSIPPI
  
CITY           SKY/WX    TMP DP  RH WIND       PRES   REMARKS
JACKSON INTL   FAIR      75  69  81 CALM      29.98R                  
6HR MIN TEMP:  74; 6HR MAX TEMP:  88;                                

JACKSON HAWKNS FAIR      76  70  82 CALM      29.98S                  
6HR MIN TEMP:  75; 6HR MAX TEMP:  90;                                

MADISON        FAIR      73  72  94 CALM      29.99S                  
MERIDIAN KEY   FAIR      76  73  91 CALM      29.97S                  
6HR MIN TEMP:  76; 6HR MAX TEMP:  91; 6HR PCP:  0.22;                

MERIDIAN NAS   FAIR      77  68  73 CALM      29.97F                  
6HR MIN TEMP:  76; 6HR MAX TEMP:  90;                                

RAYMOND        FAIR      72  72 100 CALM      29.97S                  
VICKSBURG VKS  CLEAR     73  73 100 CALM      29.97S                  
$$

MSZ059>079-190700-
SOUTH MISSISSIPPI
  
CITY           SKY/WX    TMP DP  RH WIND       PRES   REMARKS
BROOKHAVEN     FAIR      70  70 100 CALM      30.00S                  
HATTIESBURG    FAIR      76  71  85 CALM      29.98S                  
6HR MIN TEMP:  75; 6HR MAX TEMP:  89;                                

LAUREL         CLEAR     76  71  84 NW5       29.97F                  
MCCOMB         FAIR      72  69  90 CALM      29.97F                  
6HR MIN TEMP:  71; 6HR MAX TEMP:  80;                                

NATCHEZ        FAIR      72  70  93 CALM      29.97F                  
6HR MIN TEMP:  72; 6HR MAX TEMP:  75;                                

PINE BELT        N/A    N/A N/A N/A MISG        N/A                   
$$

MSZ080>082-190700-
COASTAL MISSISSIPPI
  
CITY           SKY/WX    TMP DP  RH WIND       PRES   REMARKS
BILOXI         FAIR      79  74  85 N3        29.95S                  
6HR MIN TEMP:  78; 6HR MAX TEMP:  85;                                

PASCAGOULA     NOT AVBL                                               
GULFPORT       NOT AVBL                                               
$$

LAZ007>009-015>016-023>026-190700-
NORTHEAST LOUISIANA
  
CITY           SKY/WX    TMP DP  RH WIND       PRES   REMARKS
BASTROP        FAIR      72  71  98 CALM      29.97S                  
TALLULAH/VBURG FAIR      73  69  87 CALM      29.96F                  
6HR MIN TEMP:  73; 6HR MAX TEMP:  84;                                

VIDALIA        FAIR     N/A N/A N/A CALM      29.94F                  
$$